Location: Córrego Montividiu
(13.2496°S, 48.8603°W)
Time: 19:28:38
(UTC+00:00)

Cosmos 839 Rocket - Pass Details

Date: 11 March 2026
Orbit: 956 x 2096 km, 65.9° (Epoch: 17 April)

Event Time Altitude Azimuth Distance (km) Brightness Sun altitude
Rises 23:19:06 0° 346° (NNW) 4,923 7.7 -26.7°
Reaches altitude 10° 23:22:31 10° 349° (N) 3,775 7.0 -27.5°
Enters shadow 23:31:18 64° 62° (ENE) 1,437 4.5 -29.6°
